Location: Fundy National Park
(45.6138°N, 65.0316°W)
Time: 17:03:42
(UTC-03:00)

ISS - Visible Passes

Search period start: 22 October 2021 00:00
Search period end: 01 November 2021 00:00
Orbit: 417 x 423 km, 51.6° (Epoch: 22 October)

Date Brightness Start Highest point End Pass type
(mag) Time Alt. Az. Time Alt. Az. Time Alt. Az.
22 Oct -1.8 06:39:23 10° SSW 06:42:20 29° SE 06:45:18 10° ENE visible
23 Oct -1.2 05:53:20 12° S 05:55:15 18° SE 05:57:41 10° E visible
24 Oct -0.6 05:08:40 11° ESE 05:08:40 11° ESE 05:09:27 10° ESE visible
24 Oct -3.6 06:41:41 14° SW 06:44:31 73° SSE 06:47:53 10° ENE visible
25 Oct -3.0 05:56:50 42° S 05:57:19 46° SE 06:00:35 10° ENE visible
26 Oct -1.0 05:11:52 19° E 05:11:52 19° E 05:13:09 10° ENE visible
26 Oct -3.5 06:44:52 21° W 06:46:52 53° NNW 06:50:11 10° ENE visible
27 Oct -3.7 05:59:46 70° N 05:59:46 70° N 06:02:56 10° ENE visible
28 Oct -1.0 05:14:35 19° ENE 05:14:35 19° ENE 05:15:40 10° ENE visible
28 Oct -2.7 06:47:34 20° WNW 06:49:20 33° NNW 06:52:26 10° NE visible
29 Oct -2.8 06:02:19 38° N 06:02:19 38° N 06:05:09 10° NE visible
30 Oct -0.9 05:17:01 16° NE 05:17:01 16° NE 05:17:53 10° ENE visible
30 Oct -2.4 06:49:59 17° NW 06:51:52 28° N 06:54:50 10° ENE visible
31 Oct -2.4 06:04:39 29° N 06:04:39 29° N 06:07:25 10° ENE visible
